カタログに戻る

ARIANE 5 R/B

運用中GTO
NORAD 28904·ROCKET BODY·🇫🇷 France

打ち上げ Nov 16, 2005 から Guiana Space Centre

Loading…

TLE

経年Source: Space-Track

元期: Sep 14, 2026, 12:59 UTC

1 28904U 05046C   26257.54142035 -.00000043  00000-0  23495-3 0  9998
2 28904   7.3318  67.1755 7189512  47.4052 354.2038  2.30001349174338

AllMySatでARIANE 5 R/Bをリアルタイム追跡

Download on the App Store